Location: Votelez
(50.0000°N, 15.0000°E)
Time: 06:12:25
(UTC+01:00)

ARIANE 6 FM1 Upper Stage - Pass Details

Date: 20 February 2026
Orbit: 523 x 607 km, 62.0° (Epoch: 11 March)

Event Time Altitude Azimuth Distance (km) Brightness Sun altitude
Rises 18:37:58 0° 308° (NW) 2,660 7.0 -12.1°
Reaches altitude 10° 18:40:20 10° 297° (WNW) 1,767 6.2 -12.5°
Maximum altitude 18:43:47 29° 236° (SW) 975 4.5 -13.0°
Drops below altitude 10° 18:47:15 10° 175° (S) 1,771 5.2 -13.6°
Sets 18:49:38 0° 164° (SSE) 2,666 6.0 -14.0°
